DH5DY-6 Weather Reports


Display with metric or nautical units.
time (UTC)temp
F
wind
direction
speed
MPH
gust
MPH
rain 1hr
in
rain 24hr
in
rain mn
in
humidity
%
barometer
mb
20260506122844 53 360 2.0 3.0 0.03 0.86 0.37 92 1003.7
20260506121844 54 360 1.0 3.0 0.03 0.85 0.36 93 1003.7
20260506120844 53 360 2.0 4.0 0.04 0.85 0.36 93 1003.5
20260506115844 53 360 1.0 3.0 0.05 0.85 0.36 94 1003.5
20260506114845 53 360 0.0 2.0 0.04 0.84 0.35 93 1003.5
20260506113844 53 360 1.0 3.0 0.03 0.83 0.35 94 1003.5
20260506112844 53 360 0.0 2.0 0.02 0.83 0.34 93 1003.3
20260506111843 53 360 1.0 2.0 0.02 0.82 0.33 93 1003.5
20260506110844 53 360 0.0 3.0 0.02 0.81 0.32 93 1003.5
20260506105843 53 360 2.0 5.0 0.02 0.80 0.31 92 1003.4
20260506104843 53 360 0.0 4.0 0.02 0.80 0.31 93 1003.4
20260506103843 54 360 3.0 4.0 0.02 0.80 0.31 93 1003.4
20260506102843 54 360 0.0 0.0 0.02 0.80 0.31 94 1003.3
20260506101843 53 360 0.0 0.0 0.02 0.80 0.31 94 1003.3
20260506100844 53 360 0.0 2.0 0.02 0.79 0.30 94 1003.2
20260506095843 53 360 0.0 4.0 0.02 0.79 0.30 95 1003.2
20260506094843 53 360 1.0 3.0 0.03 0.79 0.30 95 1003.2
20260506093843 52 360 2.0 5.0 0.04 0.79 0.30 95 1003.2
20260506092843 52 360 3.0 5.0 0.06 0.79 0.30 95 1003.1
20260506091915 52 360 0.0 6.0 0.06 0.78 0.29 95 1003.1
20260506091843 52 360 0.0 6.0 0.06 0.78 0.29 95 1003.1
20260506090843 52 360 2.0 4.0 0.05 0.77 0.28 95 1003.1
20260506085842 52 360 1.0 4.0 0.04 0.76 0.28 95 1003.1
20260506084843 52 360 1.0 5.0 0.03 0.76 0.27 95 1003.0
20260506083843 51 360 1.0 4.0 0.02 0.75 0.26 95 1002.9
20260506082843 51 360 3.0 6.0 0.01 0.73 0.24 95 1002.9
20260506081842 51 360 4.0 8.0 0.00 0.72 0.24 95 1002.8
20260506080843 51 360 3.0 5.0 0.00 0.72 0.24 95 1002.8
20260506072842 51 360 4.0 5.0 0.00 0.72 0.24 95 1002.8
20260506071843 51 360 2.0 5.0 0.00 0.72 0.24 95 1002.7
20260506070842 51 360 4.0 5.0 0.00 0.72 0.24 95 1002.8
20260506061842 51 360 2.0 5.0 0.00 0.72 0.24 95 1002.6
20260506060842 51 360 2.0 5.0 0.00 0.72 0.24 95 1002.6
20260506050841 51 360 2.0 6.0 0.02 0.72 0.24 95 1002.6
20260506044842 51 360 2.0 4.0 0.01 0.72 0.23 95 1002.6
20260506043841 51 360 2.0 4.0 0.00 0.71 0.22 95 1002.6
20260506042842 51 360 1.0 6.0 0.00 0.71 0.22 95 1002.6
20260506041842 51 360 2.0 5.0 0.00 0.71 0.22 95 1002.6
20260506040842 51 360 2.0 6.0 0.00 0.71 0.22 95 1002.7
20260506035841 51 360 2.0 5.0 0.00 0.71 0.22 95 1002.8
20260506034842 51 360 2.0 3.0 0.00 0.71 0.22 95 1002.7
20260506033841 51 360 1.0 3.0 0.00 0.71 0.22 95 1002.8
20260506032841 51 360 1.0 3.0 0.00 0.71 0.22 95 1002.7
20260506031841 51 360 2.0 3.0 0.00 0.71 0.22 95 1002.8
20260506030841 51 360 1.0 4.0 0.00 0.71 0.22 95 1002.9
20260506025841 51 360 1.0 4.0 0.00 0.71 0.22 95 1002.9
20260506024841 51 360 2.0 5.0 0.00 0.71 0.22 95 1003.0
20260506023841 51 360 4.0 5.0 0.00 0.71 0.22 95 1003.1
20260506022841 51 360 2.0 6.0 0.00 0.71 0.22 95 1003.3
20260506021841 51 360 3.0 6.0 0.00 0.71 0.22 95 1003.3
20260506020841 51 360 4.0 5.0 0.00 0.71 0.22 95 1003.3
20260506015841 51 360 2.0 6.0 0.00 0.71 0.22 95 1003.3
20260506014841 51 360 2.0 5.0 0.00 0.71 0.22 95 1003.4
20260506013841 52 360 0.0 2.0 0.00 0.71 0.22 95 1003.3
20260506012841 52 360 2.0 5.0 0.00 0.71 0.22 95 1003.2
20260506011841 52 360 2.0 5.0 0.00 0.71 0.22 95 1003.3
20260506010840 52 360 3.0 5.0 0.00 0.71 0.22 95 1003.3
20260506005840 52 360 1.0 3.0 0.00 0.71 0.22 95 1003.3
20260506004841 52 360 0.0 3.0 0.01 0.71 0.22 95 1003.2
20260506003840 53 360 2.0 4.0 0.01 0.71 0.22 95 1003.4
20260506002840 53 360 2.0 4.0 0.02 0.71 0.22 95 1003.4
20260506001841 53 360 1.0 3.0 0.04 0.71 0.22 95 1003.3
20260506000840 53 360 0.0 2.0 0.07 0.71 0.22 95 1003.4
20260505235841 53 360 0.0 4.0 0.08 0.71 0.22 95 1003.6
20260505234840 53 360 1.0 4.0 0.07 0.70 0.21 95 1003.6
20260505233840 54 360 2.0 5.0 0.09 0.70 0.21 95 1003.5
20260505232841 54 360 3.0 5.0 0.13 0.69 0.20 95 1003.6
20260505231840 54 360 0.0 3.0 0.17 0.67 0.18 95 1003.6
20260505230840 54 360 0.0 1.0 0.13 0.64 0.15 95 1003.6
20260505225912 54 360 0.0 3.0 0.14 0.64 0.14 95 1003.6
20260505225840 54 360 0.0 3.0 0.14 0.64 0.14 95 1003.6
20260505224840 54 360 0.0 4.0 0.15 0.64 0.14 95 1003.6
20260505223840 54 360 1.0 2.0 0.13 0.61 0.12 95 1003.7
20260505222840 54 360 1.0 2.0 0.09 0.57 0.07 95 1003.8
20260505221840 54 360 0.0 2.0 0.05 0.51 0.02 95 1003.9
20260505220840 54 360 1.0 1.0 0.05 0.51 0.02 95 1003.9
20260505215840 54 360 0.0 0.0 0.04 0.50 0.50 95 1004.1
20260505214840 54 360 0.0 0.0 0.04 0.49 0.49 95 1004.1
20260505213839 54 360 0.0 0.0 0.03 0.48 0.48 95 1004.2
20260505212840 54 360 0.0 2.0 0.03 0.47 0.47 95 1004.4
20260505211840 54 360 1.0 2.0 0.03 0.46 0.46 95 1004.4
20260505210840 54 360 0.0 0.0 0.05 0.46 0.46 95 1004.5
20260505205840 54 360 0.0 0.0 0.06 0.46 0.46 94 1004.5
20260505204839 54 360 0.0 1.0 0.06 0.45 0.45 94 1004.6
20260505203839 54 360 0.0 0.0 0.07 0.45 0.45 94 1004.7
20260505202839 54 360 0.0 0.0 0.09 0.44 0.44 94 1004.6
20260505201839 54 360 0.0 0.0 0.10 0.43 0.43 94 1004.7
20260505200841 54 360 0.0 0.0 0.10 0.42 0.42 94 1004.7
20260505195840 55 360 0.0 0.0 0.09 0.40 0.40 94 1004.6
20260505194840 55 360 0.0 0.0 0.09 0.39 0.39 94 1004.5
20260505193839 55 360 0.0 0.0 0.09 0.38 0.38 94 1004.5
20260505192839 55 360 0.0 3.0 0.07 0.35 0.35 94 1004.6
20260505191839 56 360 0.0 1.0 0.06 0.33 0.33 94 1004.6
20260505185839 56 360 0.0 0.0 0.04 0.31 0.31 94 1004.5
20260505184839 56 360 0.0 0.0 0.04 0.30 0.30 93 1004.5
20260505182839 56 360 0.0 0.0 0.04 0.28 0.28 93 1004.6
20260505181839 56 360 0.0 0.0 0.05 0.28 0.28 93 1004.6
20260505180838 56 360 0.0 0.0 0.08 0.28 0.28 93 1004.7
20260505175838 56 360 0.0 0.0 0.09 0.27 0.27 93 1004.7
20260505174838 57 360 0.0 0.0 0.09 0.26 0.26 93 1004.8
20260505173839 57 360 0.0 0.0 0.12 0.25 0.25 93 1004.8
20260505172838 57 360 0.0 2.0 0.13 0.24 0.24 93 1004.8
20260505171838 57 360 1.0 3.0 0.16 0.23 0.23 93 1005.0
20260505170839 57 360 0.0 3.0 0.16 0.20 0.20 93 1004.9
20260505165838 57 360 0.0 3.0 0.17 0.18 0.18 93 1005.0
20260505164839 57 360 2.0 4.0 0.16 0.17 0.17 93 1005.0
20260505163839 57 360 3.0 5.0 0.13 0.13 0.13 92 1004.9
20260505162909 57 360 2.0 4.0 0.10 0.11 0.11 92 1004.9
20260505162838 57 360 2.0 4.0 0.10 0.11 0.11 92 1004.9
20260505161839 58 360 3.0 5.0 0.06 0.07 0.07 90 1004.9
20260505152838 60 360 0.0 2.0 0.00 0.02 0.01 83 1004.9
20260505151838 61 360 0.0 4.0 0.00 0.02 0.01 82 1004.9
20260505150837 62 360 3.0 4.0 0.00 0.02 0.01 77 1004.9
20260505124837 62 360 1.0 3.0 0.00 0.21 0.01 72 1006.1